AAY1060 KPIE-KEYW

Flight info

Callsign AAY1060
Flight time 0h 48m
Altitude 21000
Route CEXAN KARTR KRAKN1
Aircraft A319/M-SDE3FGHIRWY/LB1

Departure

Time 2026-05-04 17:59
Airport St. Petersburg Clearwater International Airport (KPIE)

Arrival

Time 2026-05-04 18:47
Airport Key West International Airport (KEYW)
Time Latitude Longitude Altitude Speed Heading
2026-05-04 17:26 27.90699 -82.69025 28 ft 0 kts 244°
2026-05-04 17:47 27.90708 -82.69005 24 ft 4 kts 233°
2026-05-04 17:47 27.90724 -82.68981 25 ft 4 kts 257°
2026-05-04 17:48 27.90723 -82.68961 24 ft 4 kts 297°
2026-05-04 17:48 27.90704 -82.68945 26 ft 4 kts 349°
2026-05-04 17:48 27.90683 -82.68940 26 ft 0 kts 349°
2026-05-04 17:48 27.90682 -82.68940 26 ft 0 kts 349°
2026-05-04 17:51 27.90683 -82.68941 26 ft 0 kts 348°
2026-05-04 17:51 27.90684 -82.68942 26 ft 0 kts 334°
2026-05-04 17:51 27.90684 -82.68943 26 ft 0 kts 323°
2026-05-04 17:51 27.90684 -82.68946 26 ft 0 kts 301°
2026-05-04 17:52 27.90682 -82.68950 26 ft 1 kts 254°
2026-05-04 17:52 27.90676 -82.68950 26 ft 1 kts 195°
2026-05-04 17:52 27.90667 -82.68944 24 ft 0 kts 154°
2026-05-04 17:53 27.90666 -82.68944 24 ft 1 kts 154°
2026-05-04 17:53 27.90660 -82.68941 24 ft 1 kts 157°
2026-05-04 17:53 27.90648 -82.68936 24 ft 2 kts 160°
2026-05-04 17:54 27.90631 -82.68932 25 ft 3 kts 168°
2026-05-04 17:54 27.90608 -82.68927 24 ft 4 kts 171°
2026-05-04 17:54 27.90580 -82.68922 24 ft 4 kts 171°
2026-05-04 17:54 27.90547 -82.68916 24 ft 5 kts 171°
2026-05-04 17:55 27.90509 -82.68910 24 ft 6 kts 171°
2026-05-04 17:55 27.90461 -82.68901 25 ft 8 kts 171°
2026-05-04 17:55 27.90400 -82.68890 25 ft 10 kts 171°
2026-05-04 17:55 27.90325 -82.68878 24 ft 12 kts 171°
2026-05-04 17:56 27.90236 -82.68862 24 ft 14 kts 171°
2026-05-04 17:56 27.90130 -82.68860 22 ft 17 kts 182°
2026-05-04 17:56 27.90001 -82.68865 21 ft 20 kts 182°
2026-05-04 17:56 27.89871 -82.68853 23 ft 18 kts 171°
2026-05-04 17:57 27.89781 -82.68837 24 ft 12 kts 171°
2026-05-04 17:57 27.89708 -82.68817 24 ft 10 kts 148°
2026-05-04 17:57 27.89695 -82.68744 23 ft 8 kts 81°
2026-05-04 17:57 27.89701 -82.68701 22 ft 6 kts 81°
2026-05-04 17:58 27.89712 -82.68636 19 ft 10 kts 69°
2026-05-04 17:58 27.89800 -82.68628 19 ft 28 kts 351°
2026-05-04 17:58 27.90263 -82.68709 23 ft 103 kts 351°
2026-05-04 17:58 27.91178 -82.68867 30 ft 160 kts 352°
2026-05-04 17:59 27.92284 -82.69071 652 ft 163 kts 352°
2026-05-04 17:59 27.93417 -82.69308 1404 ft 169 kts 355°
2026-05-04 17:59 27.96117 -82.69754 1838 ft 240 kts 356°
2026-05-04 18:00 27.97850 -82.69814 1990 ft 256 kts 14°
2026-05-04 18:00 27.99445 -82.68988 3229 ft 254 kts 40°
2026-05-04 18:00 28.00506 -82.67408 4401 ft 256 kts 67°
2026-05-04 18:00 28.00772 -82.65403 5399 ft 266 kts 96°
2026-05-04 18:01 28.00151 -82.63400 6266 ft 279 kts 124°
2026-05-04 18:01 27.98721 -82.61901 7261 ft 285 kts 153°
2026-05-04 18:01 27.96828 -82.61284 8283 ft 284 kts 180°
2026-05-04 18:02 27.93371 -82.63004 10229 ft 284 kts 230°
2026-05-04 18:02 27.92414 -82.65047 10660 ft 308 kts 255°
2026-05-04 18:02 27.92090 -82.67492 11397 ft 319 kts 263°
2026-05-04 18:02 27.91525 -82.69924 12142 ft 325 kts 245°
2026-05-04 18:03 27.90194 -82.72010 12939 ft 333 kts 224°
2026-05-04 18:03 27.88212 -82.73399 13677 ft 343 kts 202°
2026-05-04 18:03 27.85830 -82.73786 14360 ft 353 kts 179°
2026-05-04 18:03 27.83438 -82.73029 15040 ft 365 kts 155°
2026-05-04 18:04 27.81265 -82.71507 15678 ft 370 kts 150°
2026-05-04 18:04 27.79097 -82.69909 16315 ft 374 kts 150°
2026-05-04 18:04 27.74691 -82.66648 17549 ft 383 kts 151°
2026-05-04 18:05 27.72444 -82.64995 18146 ft 387 kts 151°
2026-05-04 18:05 27.70166 -82.63326 18695 ft 392 kts 152°
2026-05-04 18:05 27.67867 -82.61646 19280 ft 396 kts 152°
2026-05-04 18:05 27.65545 -82.59953 19870 ft 399 kts 152°
2026-05-04 18:06 27.60870 -82.56545 20891 ft 407 kts 152°
2026-05-04 18:06 27.58494 -82.54812 21040 ft 407 kts 152°
2026-05-04 18:06 27.56147 -82.53091 21076 ft 398 kts 152°
2026-05-04 18:07 27.53841 -82.51399 21078 ft 395 kts 152°
2026-05-04 18:07 27.51540 -82.49717 21081 ft 394 kts 152°
2026-05-04 18:07 27.49987 -82.48585 21079 ft 393 kts 152°
2026-05-04 18:07 27.46940 -82.46370 21079 ft 393 kts 152°
2026-05-04 18:08 27.45421 -82.45268 21079 ft 393 kts 152°
2026-05-04 18:08 27.43120 -82.43602 21077 ft 393 kts 152°
2026-05-04 18:08 27.40822 -82.41937 21077 ft 393 kts 152°
2026-05-04 18:08 27.38494 -82.40245 21078 ft 393 kts 152°
2026-05-04 18:09 27.33903 -82.36906 21070 ft 393 kts 152°
2026-05-04 18:09 27.29309 -82.33574 21071 ft 393 kts 152°
2026-05-04 18:10 27.27012 -82.31909 21072 ft 393 kts 152°
2026-05-04 18:10 27.24711 -82.30242 21052 ft 393 kts 153°
2026-05-04 18:10 27.22412 -82.28576 21053 ft 393 kts 153°
2026-05-04 18:10 27.20115 -82.26913 21055 ft 393 kts 153°
2026-05-04 18:11 27.17849 -82.25274 21056 ft 393 kts 153°
2026-05-04 18:11 27.15554 -82.23612 21057 ft 393 kts 153°
2026-05-04 18:11 27.13223 -82.21929 21057 ft 393 kts 153°
2026-05-04 18:11 27.10953 -82.20292 21058 ft 393 kts 153°
2026-05-04 18:12 27.08650 -82.18635 21060 ft 393 kts 153°
2026-05-04 18:12 27.06348 -82.16978 21067 ft 393 kts 153°
2026-05-04 18:12 27.04044 -82.15320 21067 ft 393 kts 153°
2026-05-04 18:12 27.01745 -82.13660 21069 ft 393 kts 153°
2026-05-04 18:13 26.99442 -82.11997 21071 ft 393 kts 153°
2026-05-04 18:13 26.97145 -82.10338 21073 ft 394 kts 153°
2026-05-04 18:13 26.92411 -82.07352 21065 ft 385 kts 166°
2026-05-04 18:14 26.89898 -82.06356 21062 ft 383 kts 167°
2026-05-04 18:14 26.87384 -82.05365 21073 ft 383 kts 167°
2026-05-04 18:14 26.84871 -82.04372 21072 ft 383 kts 167°
2026-05-04 18:15 26.79844 -82.02381 21069 ft 383 kts 167°
2026-05-04 18:15 26.74823 -82.00380 21066 ft 383 kts 167°
2026-05-04 18:15 26.72308 -81.99380 21060 ft 383 kts 167°
2026-05-04 18:16 26.69797 -81.98382 21047 ft 383 kts 167°
2026-05-04 18:16 26.67284 -81.97384 21047 ft 383 kts 167°
2026-05-04 18:16 26.64768 -81.96385 21042 ft 383 kts 167°
2026-05-04 18:17 26.59738 -81.94392 21029 ft 384 kts 167°
2026-05-04 18:17 26.57220 -81.93400 21023 ft 384 kts 167°
2026-05-04 18:17 26.52185 -81.91416 21030 ft 384 kts 167°
2026-05-04 18:18 26.49668 -81.90423 21035 ft 384 kts 167°
2026-05-04 18:18 26.47148 -81.89430 21035 ft 384 kts 167°
2026-05-04 18:18 26.44630 -81.88439 21038 ft 384 kts 167°
2026-05-04 18:18 26.42116 -81.87450 21050 ft 383 kts 167°
2026-05-04 18:19 26.37086 -81.85471 21044 ft 383 kts 167°
2026-05-04 18:19 26.34569 -81.84478 21043 ft 383 kts 167°
2026-05-04 18:19 26.32060 -81.83486 21010 ft 383 kts 167°
2026-05-04 18:20 26.29545 -81.82492 21008 ft 383 kts 167°
2026-05-04 18:20 26.27033 -81.81502 21010 ft 384 kts 167°
2026-05-04 18:20 26.24512 -81.80510 21012 ft 384 kts 167°
2026-05-04 18:20 26.22023 -81.79533 21015 ft 384 kts 167°
2026-05-04 18:21 26.19505 -81.78547 21018 ft 384 kts 167°
2026-05-04 18:21 26.16982 -81.77559 21020 ft 384 kts 167°
2026-05-04 18:21 26.14459 -81.76571 21021 ft 384 kts 167°
2026-05-04 18:21 26.11941 -81.75584 21023 ft 384 kts 167°
2026-05-04 18:22 26.09419 -81.74596 21028 ft 384 kts 167°
2026-05-04 18:22 26.06900 -81.73609 21029 ft 384 kts 167°
2026-05-04 18:22 26.04371 -81.72617 21032 ft 385 kts 167°
2026-05-04 18:22 26.01844 -81.71625 21013 ft 385 kts 167°
2026-05-04 18:23 25.99331 -81.70639 20870 ft 379 kts 167°
2026-05-04 18:23 25.96861 -81.69670 20629 ft 374 kts 167°
2026-05-04 18:23 25.94414 -81.68712 20390 ft 372 kts 167°
2026-05-04 18:23 25.91978 -81.67758 20154 ft 370 kts 167°
2026-05-04 18:24 25.89553 -81.66810 19915 ft 368 kts 167°
2026-05-04 18:24 25.87140 -81.65868 19681 ft 367 kts 167°
2026-05-04 18:24 25.84769 -81.64947 19447 ft 364 kts 167°
2026-05-04 18:24 25.82351 -81.64010 19210 ft 362 kts 167°
2026-05-04 18:25 25.79978 -81.63089 18987 ft 361 kts 167°
2026-05-04 18:25 25.77644 -81.62183 18769 ft 359 kts 167°
2026-05-04 18:25 25.75291 -81.61269 18535 ft 358 kts 167°
2026-05-04 18:25 25.72951 -81.60359 18308 ft 356 kts 167°
2026-05-04 18:26 25.70612 -81.59448 18029 ft 354 kts 167°
2026-05-04 18:26 25.68489 -81.58622 17791 ft 352 kts 167°
2026-05-04 18:26 25.66199 -81.57728 17533 ft 350 kts 167°
2026-05-04 18:26 25.63905 -81.56836 17292 ft 349 kts 167°
2026-05-04 18:27 25.61611 -81.55943 17035 ft 348 kts 167°
2026-05-04 18:27 25.59337 -81.55061 16730 ft 345 kts 167°
2026-05-04 18:27 25.57192 -81.54230 16354 ft 343 kts 167°
2026-05-04 18:27 25.54947 -81.53357 15962 ft 341 kts 167°
2026-05-04 18:28 25.52698 -81.52542 15579 ft 335 kts 173°
2026-05-04 18:28 25.50429 -81.52181 15203 ft 325 kts 185°
2026-05-04 18:28 25.48234 -81.52321 14829 ft 316 kts 196°
2026-05-04 18:28 25.46131 -81.52912 14464 ft 308 kts 206°
2026-05-04 18:29 25.44167 -81.53808 14102 ft 304 kts 209°
2026-05-04 18:29 25.42219 -81.54715 13730 ft 303 kts 209°
2026-05-04 18:29 25.40281 -81.55615 13322 ft 301 kts 209°
2026-05-04 18:29 25.38380 -81.56572 12896 ft 299 kts 211°
2026-05-04 18:30 25.34661 -81.58598 12052 ft 297 kts 211°
2026-05-04 18:30 25.32816 -81.59620 11634 ft 296 kts 211°
2026-05-04 18:30 25.30973 -81.60637 11220 ft 296 kts 211°
2026-05-04 18:31 25.29130 -81.61648 10810 ft 295 kts 210°
2026-05-04 18:31 25.27296 -81.62648 10539 ft 290 kts 210°
2026-05-04 18:31 25.25511 -81.63615 10319 ft 283 kts 210°
2026-05-04 18:31 25.23750 -81.64568 10033 ft 281 kts 210°
2026-05-04 18:32 25.21994 -81.65518 9989 ft 282 kts 210°
2026-05-04 18:32 25.20232 -81.66473 10001 ft 282 kts 210°
2026-05-04 18:32 25.18468 -81.67428 9997 ft 282 kts 210°
2026-05-04 18:32 25.16708 -81.68382 9996 ft 282 kts 210°
2026-05-04 18:33 25.14946 -81.69336 9994 ft 282 kts 210°
2026-05-04 18:33 25.13181 -81.70289 9995 ft 282 kts 210°
2026-05-04 18:33 25.11420 -81.71240 9994 ft 282 kts 210°
2026-05-04 18:33 25.09656 -81.72190 9981 ft 282 kts 210°
2026-05-04 18:34 25.07891 -81.73141 9991 ft 283 kts 210°
2026-05-04 18:34 25.06122 -81.74097 9855 ft 284 kts 210°
2026-05-04 18:34 25.04358 -81.75049 9518 ft 281 kts 210°
2026-05-04 18:34 25.02607 -81.75995 9191 ft 279 kts 210°
2026-05-04 18:35 25.00868 -81.76932 8869 ft 278 kts 210°
2026-05-04 18:35 24.99138 -81.77866 8545 ft 276 kts 210°
2026-05-04 18:35 24.97413 -81.78797 8224 ft 275 kts 210°
2026-05-04 18:35 24.95700 -81.79721 7908 ft 273 kts 209°
2026-05-04 18:36 24.93998 -81.80640 7579 ft 272 kts 209°
2026-05-04 18:36 24.92301 -81.81553 7246 ft 270 kts 209°
2026-05-04 18:36 24.90617 -81.82458 6916 ft 269 kts 209°
2026-05-04 18:36 24.88960 -81.83349 6594 ft 267 kts 209°
2026-05-04 18:37 24.87294 -81.84245 6257 ft 266 kts 209°
2026-05-04 18:37 24.85631 -81.85139 5909 ft 265 kts 208°
2026-05-04 18:37 24.83977 -81.86029 5566 ft 264 kts 208°
2026-05-04 18:37 24.82331 -81.86919 5251 ft 263 kts 208°
2026-05-04 18:38 24.80684 -81.87810 4966 ft 264 kts 208°
2026-05-04 18:38 24.79035 -81.88698 4671 ft 264 kts 207°
2026-05-04 18:38 24.77387 -81.89579 4390 ft 263 kts 208°
2026-05-04 18:38 24.75772 -81.90440 4190 ft 253 kts 207°
2026-05-04 18:39 24.74219 -81.91269 4005 ft 242 kts 207°
2026-05-04 18:39 24.72742 -81.92061 3884 ft 230 kts 208°
2026-05-04 18:39 24.71328 -81.92820 3758 ft 224 kts 208°
2026-05-04 18:39 24.69931 -81.93571 3637 ft 223 kts 207°
2026-05-04 18:40 24.68538 -81.94320 3518 ft 223 kts 209°
2026-05-04 18:40 24.67138 -81.95071 3397 ft 224 kts 208°
2026-05-04 18:40 24.65735 -81.95823 3280 ft 224 kts 208°
2026-05-04 18:40 24.64334 -81.96539 3151 ft 219 kts 202°
2026-05-04 18:41 24.62869 -81.96873 3052 ft 212 kts 184°
2026-05-04 18:41 24.61424 -81.96865 2925 ft 206 kts 181°
2026-05-04 18:41 24.60003 -81.96846 2745 ft 201 kts 180°
2026-05-04 18:41 24.58616 -81.96829 2574 ft 197 kts 180°
2026-05-04 18:42 24.57246 -81.96790 2380 ft 194 kts 173°
2026-05-04 18:42 24.56063 -81.96211 2260 ft 184 kts 136°
2026-05-04 18:42 24.55457 -81.95051 2151 ft 170 kts 99°
2026-05-04 18:42 24.55423 -81.93825 2051 ft 155 kts 87°
2026-05-04 18:43 24.55439 -81.92675 1948 ft 148 kts 87°
2026-05-04 18:43 24.55450 -81.91554 1843 ft 147 kts 87°
2026-05-04 18:43 24.55461 -81.90438 1755 ft 144 kts 86°
2026-05-04 18:43 24.55473 -81.89347 1655 ft 140 kts 86°
2026-05-04 18:44 24.55483 -81.88316 1595 ft 134 kts 86°
2026-05-04 18:44 24.55487 -81.87972 1567 ft 134 kts 86°
2026-05-04 18:44 24.55507 -81.86279 1515 ft 131 kts 86°
2026-05-04 18:44 24.55519 -81.85275 1516 ft 132 kts 84°
2026-05-04 18:45 24.55531 -81.84281 1489 ft 132 kts 87°
2026-05-04 18:45 24.55541 -81.83278 1291 ft 131 kts 85°
2026-05-04 18:45 24.55551 -81.82275 1107 ft 131 kts 84°
2026-05-04 18:45 24.55561 -81.81276 922 ft 131 kts 86°
2026-05-04 18:46 24.55563 -81.80268 742 ft 134 kts 86°
2026-05-04 18:46 24.55565 -81.79251 532 ft 131 kts 85°
2026-05-04 18:46 24.55581 -81.78257 302 ft 133 kts 85°
2026-05-04 18:46 24.55596 -81.77206 141 ft 139 kts 86°
2026-05-04 18:47 24.55612 -81.76170 10 ft 115 kts 89°
2026-05-04 18:47 24.55616 -81.75590 15 ft 48 kts 89°
2026-05-04 18:47 24.55618 -81.75359 14 ft 25 kts 89°
2026-05-04 18:47 24.55613 -81.75255 13 ft 6 kts 112°
2026-05-04 18:48 24.55575 -81.75241 14 ft 7 kts 178°
2026-05-04 18:48 24.55537 -81.75253 13 ft 6 kts 231°
2026-05-04 18:48 24.55532 -81.75302 13 ft 7 kts 262°
2026-05-04 18:48 24.55493 -81.75309 12 ft 7 kts 158°
2026-05-04 18:49 24.55470 -81.75300 12 ft 3 kts 161°
2026-05-04 18:49 24.55454 -81.75298 12 ft 1 kts 179°
2026-05-04 18:49 24.55445 -81.75298 13 ft 1 kts 179°
2026-05-04 18:49 24.55436 -81.75298 12 ft 1 kts 180°
2026-05-04 18:50 24.55435 -81.75298 12 ft 0 kts 180°